Location: Brachstadt
(48.6975°N, 10.6755°E)
Time: 04:53:33
(UTC+00:00)

USA 234 - Pass Details

Date: 18 September 2020
Orbit: 1102 x 1106 km, 123.0° (Epoch: 16 October)

Event Time Altitude Azimuth Distance (km) Brightness Sun altitude
Rises 23:41:38 0° 82° (E) 3,920 6.3 -39.5°
Reaches altitude 10° 23:44:13 10° 77° (ENE) 2,963 5.7 -39.4°
Maximum altitude 23:50:20 45° 7° (N) 1,474 4.1 -39.2°
Enters shadow 23:50:38 44° 360° (N) 1,479 4.1 -39.2°
Exits shadow 23:54:28 21° 307° (NW) 2,277 5.0 -39.0°
Drops below altitude 10° 23:56:28 10° 298° (WNW) 2,967 5.6 -39.0°
Sets 23:59:03 0° 292° (WNW) 3,926 6.2 -38.9°
